• In Deutschland
  • Länderverzeichnis
  • Für 7 Tage
  • Wassertemperatur
  • Satellitenkarten
  • Wetterkarte
  • Widgets
  • user-avatar
    Anmelden

    Stündliche Wetter Villavicencio

    Heute, 18 August, Freitag

    Zeit Temperatur Niederschläge Wind Luftdruck Luftfeuchtigkeit
    00:00 +25°C° 0 mm 1 m/S 717 mmHg 88%
    01:00 +25°C° 0 mm 1 m/S 717 mmHg 87%
    02:00 +24°C° 0,1 mm 1 m/S 717 mmHg 86%
    03:00 +24°C° 0,1 mm 1 m/S 717 mmHg 85%
    04:00 +24°C° 0,1 mm 1 m/S 717 mmHg 84%
    05:00 +24°C° 0,1 mm 1 m/S 717 mmHg 82%
    06:00 +25°C° 0,1 mm 1 m/S 717 mmHg 80%
    07:00 +24°C° 0,1 mm 0 m/S 718 mmHg 78%
    08:00 +27°C° 0 mm 1 m/S 718 mmHg 71%
    09:00 +29°C° 0 mm 1 m/S 718 mmHg 65%
    10:00 +31°C° 0 mm 1 m/S 718 mmHg 59%
    11:00 +32°C° 0 mm 2 m/S 717 mmHg 57%
    12:00 +34°C° 0 mm 2 m/S 717 mmHg 55%
    13:00 +34°C° 0 mm 2 m/S 716 mmHg 54%
    14:00 +34°C° 0,1 mm 2 m/S 715 mmHg 58%
    15:00 +32°C° 0,1 mm 2 m/S 715 mmHg 63%
    16:00 +32°C° 0,1 mm 2 m/S 714 mmHg 67%
    17:00 +30°C° 0,8 mm 1 m/S 714 mmHg 74%
    18:00 +28°C° 0,8 mm 1 m/S 715 mmHg 81%
    19:00 +25°C° 0,8 mm 0 m/S 715 mmHg 88%
    20:00 +24°C° 0,7 mm 0 m/S 716 mmHg 88%
    21:00 +26°C° 0,7 mm 1 m/S 716 mmHg 89%
    22:00 +26°C° 0,7 mm 1 m/S 717 mmHg 89%
    23:00 +25°C° 0,3 mm 1 m/S 717 mmHg 89%

    Morgen, 19 August, Samstag

    Zeit Temperatur Niederschläge Wind Luftdruck Luftfeuchtigkeit
    00:00 +25°C° 0,3 mm 1 m/S 717 mmHg 88%
    01:00 +25°C° 0,3 mm 1 m/S 716 mmHg 88%
    02:00 +25°C° 0,2 mm 1 m/S 716 mmHg 87%
    03:00 +25°C° 0,2 mm 1 m/S 716 mmHg 86%
    04:00 +25°C° 0,2 mm 1 m/S 716 mmHg 86%
    05:00 +25°C° 0,2 mm 1 m/S 716 mmHg 85%
    06:00 +25°C° 0,2 mm 1 m/S 717 mmHg 84%
    07:00 +24°C° 0,2 mm 0 m/S 717 mmHg 84%
    08:00 +27°C° 0,2 mm 1 m/S 717 mmHg 78%
    09:00 +29°C° 0,2 mm 1 m/S 718 mmHg 72%
    10:00 +30°C° 0,2 mm 1 m/S 718 mmHg 67%
    11:00 +31°C° 0,1 mm 2 m/S 717 mmHg 64%
    12:00 +32°C° 0,1 mm 2 m/S 716 mmHg 60%
    13:00 +32°C° 0,1 mm 2 m/S 716 mmHg 57%
    14:00 +32°C° 0,3 mm 2 m/S 715 mmHg 62%
    15:00 +31°C° 0,3 mm 2 m/S 714 mmHg 66%
    16:00 +31°C° 0,3 mm 1 m/S 714 mmHg 70%
    17:00 +29°C° 0,7 mm 1 m/S 714 mmHg 76%
    18:00 +28°C° 0,7 mm 1 m/S 715 mmHg 81%
    19:00 +24°C° 0,7 mm 0 m/S 716 mmHg 87%
    20:00 +26°C° 0,3 mm 1 m/S 716 mmHg 86%
    21:00 +25°C° 0,3 mm 1 m/S 717 mmHg 86%
    22:00 +25°C° 0,3 mm 1 m/S 717 mmHg 85%
    23:00 +25°C° 0,1 mm 1 m/S 717 mmHg 83%

    übermorgen, 20 August, Sonntag

    Zeit Temperatur Niederschläge Wind Luftdruck Luftfeuchtigkeit
    00:00 +25°C° 0,1 mm 1 m/S 717 mmHg 82%
    01:00 +25°C° 0,1 mm 1 m/S 716 mmHg 80%
    02:00 +25°C° 0,1 mm 1 m/S 716 mmHg 78%
    03:00 +25°C° 0,1 mm 1 m/S 716 mmHg 77%
    04:00 +23°C° 0,1 mm 0 m/S 716 mmHg 75%
    05:00 +25°C° 0 mm 1 m/S 716 mmHg 74%
    06:00 +25°C° 0 mm 1 m/S 717 mmHg 73%
    07:00 +26°C° 0 mm 1 m/S 717 mmHg 72%
    08:00 +27°C° 0 mm 1 m/S 718 mmHg 67%
    09:00 +29°C° 0 mm 1 m/S 718 mmHg 62%
    10:00 +31°C° 0 mm 1 m/S 718 mmHg 57%
    11:00 +31°C° 0 mm 1 m/S 718 mmHg 55%
    12:00 +32°C° 0 mm 2 m/S 717 mmHg 52%
    13:00 +34°C° 0 mm 2 m/S 717 mmHg 49%
    14:00 +34°C° 0 mm 2 m/S 716 mmHg 51%
    15:00 +32°C° 0 mm 2 m/S 715 mmHg 52%
    16:00 +32°C° 0 mm 2 m/S 715 mmHg 54%
    17:00 +30°C° 0 mm 1 m/S 715 mmHg 60%
    18:00 +28°C° 0 mm 1 m/S 716 mmHg 67%
    19:00 +26°C° 0 mm 1 m/S 717 mmHg 74%
    20:00 +26°C° 0,1 mm 1 m/S 717 mmHg 71%
    21:00 +25°C° 0,1 mm 1 m/S 718 mmHg 68%
    22:00 +25°C° 0,1 mm 1 m/S 718 mmHg 65%
    23:00 +25°C° 0,1 mm 1 m/S 718 mmHg 64%

    21 August, Montag

    Zeit Temperatur Niederschläge Wind Luftdruck Luftfeuchtigkeit
    00:00 +24°C° 0,1 mm 1 m/S 718 mmHg 63%
    01:00 +24°C° 0,1 mm 1 m/S 718 mmHg 62%
    02:00 +24°C° 0 mm 1 m/S 718 mmHg 62%
    03:00 +23°C° 0 mm 1 m/S 717 mmHg 63%
    04:00 +23°C° 0 mm 1 m/S 717 mmHg 63%
    05:00 +24°C° 0 mm 1 m/S 718 mmHg 62%
    06:00 +24°C° 0 mm 1 m/S 718 mmHg 62%
    07:00 +25°C° 0 mm 1 m/S 719 mmHg 61%
    08:00 +27°C° 0 mm 1 m/S 719 mmHg 56%
    09:00 +30°C° 0 mm 2 m/S 719 mmHg 50%
    10:00 +32°C° 0 mm 2 m/S 720 mmHg 44%
    11:00 +32°C° 0,1 mm 2 m/S 719 mmHg 47%
    12:00 +33°C° 0,1 mm 3 m/S 719 mmHg 50%
    13:00 +31°C° 0,1 mm 3 m/S 718 mmHg 54%
    14:00 +30°C° 0,4 mm 2 m/S 718 mmHg 62%
    15:00 +29°C° 0,4 mm 2 m/S 717 mmHg 70%
    16:00 +28°C° 0,4 mm 1 m/S 716 mmHg 78%
    17:00 +27°C° 0,1 mm 1 m/S 717 mmHg 80%
    18:00 +26°C° 0,1 mm 1 m/S 717 mmHg 83%
    19:00 +25°C° 0,1 mm 1 m/S 718 mmHg 86%
    20:00 +25°C° 0 mm 1 m/S 718 mmHg 84%
    21:00 +24°C° 0 mm 1 m/S 718 mmHg 82%
    22:00 +24°C° 0 mm 1 m/S 719 mmHg 80%
    23:00 +24°C° 0 mm 1 m/S 719 mmHg 78%

    22 August, Dienstag

    Zeit Temperatur Niederschläge Wind Luftdruck Luftfeuchtigkeit
    00:00 +23°C° 0 mm 1 m/S 718 mmHg 76%
    01:00 +23°C° 0 mm 1 m/S 718 mmHg 74%
    02:00 +23°C° 0 mm 1 m/S 718 mmHg 72%
    03:00 +23°C° 0 mm 1 m/S 718 mmHg 70%
    04:00 +24°C° 0 mm 1 m/S 718 mmHg 67%
    05:00 +22°C° 0 mm 0 m/S 719 mmHg 69%
    06:00 +22°C° 0 mm 0 m/S 719 mmHg 70%
    07:00 +22°C° 0 mm 0 m/S 720 mmHg 71%
    08:00 +23°C° 0,1 mm 0 m/S 720 mmHg 70%
    09:00 +26°C° 0,1 mm 1 m/S 721 mmHg 68%
    10:00 +27°C° 0,1 mm 1 m/S 721 mmHg 66%
    11:00 +28°C° 0,2 mm 1 m/S 720 mmHg 65%
    12:00 +29°C° 0,2 mm 1 m/S 719 mmHg 63%
    13:00 +29°C° 0,2 mm 2 m/S 718 mmHg 61%
    14:00 +30°C° 0,1 mm 2 m/S 718 mmHg 61%
    15:00 +30°C° 0,1 mm 1 m/S 717 mmHg 61%
    16:00 +30°C° 0,1 mm 1 m/S 717 mmHg 60%
    17:00 +28°C° 0 mm 1 m/S 717 mmHg 67%
    18:00 +27°C° 0 mm 1 m/S 718 mmHg 73%
    19:00 +25°C° 0 mm 1 m/S 718 mmHg 79%
    20:00 +25°C° 0 mm 1 m/S 718 mmHg 78%
    21:00 +24°C° 0 mm 1 m/S 719 mmHg 77%
    22:00 +24°C° 0 mm 1 m/S 719 mmHg 76%
    23:00 +24°C° 0 mm 1 m/S 719 mmHg 75%

    23 August, Mittwoch

    Zeit Temperatur Niederschläge Wind Luftdruck Luftfeuchtigkeit
    00:00 +24°C° 0 mm 1 m/S 718 mmHg 74%
    01:00 +24°C° 0 mm 1 m/S 718 mmHg 73%
    02:00 +23°C° 0 mm 1 m/S 718 mmHg 72%
    03:00 +23°C° 0 mm 1 m/S 717 mmHg 72%
    04:00 +23°C° 0 mm 1 m/S 717 mmHg 71%
    05:00 +24°C° 0 mm 1 m/S 718 mmHg 70%
    06:00 +24°C° 0 mm 1 m/S 718 mmHg 68%
    07:00 +25°C° 0 mm 1 m/S 718 mmHg 67%
    08:00 +27°C° 0 mm 1 m/S 718 mmHg 60%
    09:00 +30°C° 0 mm 1 m/S 718 mmHg 53%
    10:00 +32°C° 0 mm 2 m/S 718 mmHg 45%
    11:00 +34°C° 0 mm 2 m/S 718 mmHg 44%
    12:00 +34°C° 0 mm 2 m/S 717 mmHg 43%
    13:00 +35°C° 0 mm 2 m/S 716 mmHg 42%
    14:00 +34°C° 0 mm 2 m/S 716 mmHg 46%
    15:00 +34°C° 0 mm 2 m/S 715 mmHg 49%
    16:00 +32°C° 0 mm 2 m/S 714 mmHg 53%
    17:00 +30°C° 0,2 mm 2 m/S 715 mmHg 61%
    18:00 +28°C° 0,2 mm 1 m/S 715 mmHg 70%
    19:00 +25°C° 0,2 mm 1 m/S 716 mmHg 78%
    20:00 +25°C° 0,3 mm 1 m/S 716 mmHg 78%
    21:00 +25°C° 0,3 mm 1 m/S 717 mmHg 78%
    22:00 +24°C° 0,3 mm 1 m/S 717 mmHg 77%
    23:00 +24°C° 0,1 mm 1 m/S 717 mmHg 77%
    Mehr zeigen